{"data":{"norad_id":57840,"intl_designator":"2023-141A","name":"STARLINK-30285","alt_names":[],"object_type":"PAYLOAD","status":"ACTIVE","operator":null,"country":"US","launch_date":"2023-09-12","launch_site_code":"AFWTR","launch_vehicle":null,"mission":null,"orbit_class":"UNKNOWN","rcs_meters":null,"size_class":null,"mass_kg":null,"dimensions":null,"purposes":["comms"],"wikipedia_slug":null,"has_3d_model":false,"image_url":null,"decayed_at":null,"tle_current":{"epoch":"2026-05-25T03:00:26.004672Z","epoch_age_seconds":68264,"freshness":"FRESH","line1":"1 57840U 23141A   26145.12530098 -.00000540  00000+0 -56370-5 0  9997","line2":"2 57840  53.1606 288.8679 0000826  91.3150 268.7946 15.31704247152037","mean_motion":15.31704247,"eccentricity":8.26e-5,"inclination_deg":53.1606,"raan_deg":288.8679,"arg_perigee_deg":91.315,"mean_anomaly_deg":268.7946,"bstar":-5.637e-6,"rev_number":15203,"period_min":94.012927288045,"perigee_km":470.16161897481,"apogee_km":471.29305136298,"semimajor_km":6848.8643351689,"source":"CELESTRAK","updated_at":"2026-05-25T13:38:18.413207Z"}}}